Wind_Speed
61 63 63 62 62 61 60 60 60 60 60 60 59 58 57 56 56 55 55 56 58 59 59 59 59 60 61 62 63 63 64 64 64 64 64 64 65 65 65 65 65 66 66
64 65 65 65 65 65 65 65 64 64 64 64 64 63 61 59 59 58 59 59 60 60 60 61 62 63 63 64 65 66 67 68 68 67 68 69 69 69 68 67 67 66 65
66 67 67 67 68 68 68 69 69 69 68 67 67 66 65 63 62 62 62 62 62 61 61 62 64 65 65 66 67 68 69 70 70 69 69 70 69 68 67 66 66 65 65
68 67 67 67 69 70 71 71 71 72 71 71 70 69 69 68 66 66 66 64 63 63 63 64 65 66 67 68 69 69 69 69 68 67 66 66 65 64 63 62 61 61 62
74 73 72 71 70 70 71 72 73 73 74 74 75 74 73 72 71 70 68 66 65 65 65 65 65 66 67 67 68 67 66 65 64 63 62 62 62 62 62 61 62 62 63
80 79 77 76 75 74 74 76 76 77 77 78 77 77 77 76 74 72 70 68 67 67 66 66 66 66 67 66 66 66 64 63 61 61 60 61 62 63 64 65 67 68 69
82 82 81 80 80 80 79 79 79 80 81 81 80 79 78 77 75 74 73 71 70 69 69 68 68 68 67 65 65 64 63 62 62 62 62 63 64 65 66 69 71 73 74
79 78 79 79 80 80 81 82 83 84 84 84 84 82 80 78 78 77 76 75 74 72 70 68 68 67 66 65 64 63 64 64 65 65 65 67 68 69 70 72 74 76 79
81 80 80 80 79 80 81 82 84 86 87 88 88 86 83 81 81 81 80 77 74 72 70 68 67 65 65 63 63 64 66 67 68 68 69 70 71 73 74 76 79 82 83
88 87 86 86 86 85 84 83 84 85 86 86 87 86 84 82 82 83 81 76 72 70 68 66 64 63 64 64 65 67 68 70 71 72 72 72 73 76 79 81 84 86 88
94 93 92 90 88 87 84 83 81 80 80 79 78 78 77 75 76 78 76 72 70 68 66 65 64 64 65 65 66 68 70 72 73 74 74 75 76 79 82 84 85 87 88
92 90 89 87 85 85 83 80 78 76 74 72 71 70 69 68 70 72 70 67 66 67 65 64 65 65 66 67 67 69 71 73 74 75 76 78 79 81 82 83 84 85 86
94 92 88 86 84 82 80 78 76 74 73 71 70 67 65 64 65 65 65 63 63 65 64 64 66 67 66 68 69 71 73 74 76 77 79 80 81 82 82 82 82 82 82
103 100 96 93 89 85 82 79 78 76 75 73 72 69 65 63 62 62 62 62 62 63 64 65 65 66 66 69 71 73 75 76 78 79 80 80 81 81 80 80 80 79 77
102 104 105 104 101 96 91 86 82 80 78 76 73 70 67 64 65 67 69 68 66 67 67 66 66 67 68 71 74 75 78 80 80 80 80 80 79 79 78 78 76 75 73
94 97 101 104 106 105 101 95 89 84 81 77 74 72 70 70 71 74 77 76 73 71 70 69 71 72 72 75 77 79 80 81 80 79 79 78 78 76 75 73 72 70 69
83 85 88 92 95 98 100 98 94 90 87 82 77 74 73 73 75 78 80 80 78 74 73 74 74 75 76 77 77 78 79 79 78 78 78 78 75 72 70 68 67 66 66
73 73 74 76 79 82 87 91 93 92 91 88 82 78 77 76 77 78 80 81 80 77 75 76 76 75 74 74 74 75 76 76 76 76 76 74 70 67 64 63 63 64 65
63 62 62 62 64 67 72 77 83 87 89 90 87 83 81 79 79 79 79 78 77 76 74 73 72 72 72 73 73 74 74 74 73 72 71 67 64 61 59 60 61 63 65
50 50 50 50 51 53 56 60 64 69 74 77 80 80 81 81 81 81 81 79 78 76 73 72 72 72 71 71 71 71 71 70 68 66 62 59 57 56 57 58 60 63 65
36 37 37 37 38 40 42 45 48 52 56 60 64 67 70 73 75 77 79 78 76 74 72 70 68 67 67 67 66 65 65 63 60 57 54 53 54 55 56 58 61 64 67
23 23 25 27 28 30 31 33 36 39 42 45 48 52 56 58 61 64 65 64 64 65 63 61 60 59 59 59 58 58 56 54 52 50 50 51 53 54 57 60 63 66 69
14 16 18 20 21 22 22 24 26 29 31 33 35 37 39 40 43 46 48 50 50 51 50 50 51 51 51 51 51 50 49 48 47 47 48 50 52 55 58 61 65 69 72
11 14 16 17 18 19 20 21 22 23 25 26 27 28 29 32 34 36 37 39 40 41 42 43 44 45 45 45 45 44 43 43 44 44 47 49 53 56 60 63 67 71 75
9 11 14 16 17 18 19 20 21 22 24 25 26 27 28 29 31 33 34 35 36 37 39 40 41 41 41 40 39 38 39 40 42 45 48 51 55 59 62 65 69 73 77
7 8 9 11 13 14 15 16 18 20 22 24 25 26 28 30 31 32 33 34 35 37 38 39 39 37 35 33 33 34 37 40 44 47 51 54 58 61 65 68 72 75 77
Wind_Direction
252 254 256 257 257 257 256 255 255 257 259 262 265 267 270 272 274 274 274 274 274 274 275 274 274 274 274 274 274 275 276 278 279 281 283 285 286 287 289 289 290 290 289
250 252 253 255 257 258 257 256 257 258 260 263 265 267 269 272 274 274 273 273 272 272 272 273 273 273 273 273 274 274 276 277 279 281 283 284 286 287 288 289 290 291 290
251 252 253 254 255 256 257 258 259 259 261 264 266 267 269 271 272 273 273 272 271 270 270 271 271 271 272 272 273 275 276 278 280 281 283 284 286 287 288 290 292 293 293
255 255 255 256 257 257 258 259 260 261 263 264 265 267 268 269 270 271 271 270 268 267 268 269 270 271 271 273 274 276 278 280 281 282 283 284 285 287 289 291 293 296 297
258 258 258 258 258 257 258 260 260 261 264 265 266 267 267 268 269 269 268 267 265 265 266 267 269 270 272 273 275 277 279 280 281 282 283 284 284 286 288 291 295 298 301
260 260 259 258 257 257 258 259 260 261 263 264 266 267 267 267 266 265 264 263 263 263 265 266 267 269 271 272 274 275 277 278 280 281 281 281 283 286 288 292 296 300 304
261 261 260 258 256 256 257 258 259 261 262 263 264 266 267 266 263 261 260 261 262 263 264 265 267 268 269 270 272 273 275 276 277 277 278 280 283 286 290 295 300 303 306
262 261 259 257 256 256 257 258 259 260 261 261 262 264 264 264 262 259 258 259 261 262 263 264 265 265 267 268 270 271 273 274 275 276 277 280 283 287 292 297 300 303 305
261 261 259 258 257 258 259 260 261 261 260 260 261 262 262 262 262 260 260 261 262 262 263 263 263 264 265 266 268 270 272 273 274 276 278 281 285 289 294 297 300 302 304
261 261 261 261 261 262 262 263 264 263 262 262 262 262 262 262 262 262 262 262 262 262 261 260 261 264 265 267 268 269 270 272 275 277 279 283 287 290 294 296 299 301 304
261 262 262 262 263 263 263 263 264 264 263 263 263 264 264 263 263 263 264 264 261 259 258 259 261 263 265 267 267 269 271 274 276 278 281 285 288 291 293 296 299 301 303
262 262 261 260 260 260 261 262 262 263 263 263 262 262 262 262 263 264 263 261 259 257 258 260 262 263 265 266 268 270 272 274 276 279 282 285 288 290 293 295 298 300 302
260 259 257 257 257 259 260 260 261 263 263 262 261 261 260 261 262 262 262 260 258 257 259 261 262 263 266 267 269 270 272 274 276 278 281 284 287 290 292 294 296 298 301
260 259 257 257 257 257 259 260 261 262 263 262 261 261 261 262 261 262 262 259 258 258 261 262 262 264 267 268 269 271 272 274 275 277 280 283 286 289 291 293 295 296 298
262 260 258 258 257 257 258 259 259 260 261 260 259 259 260 261 260 258 257 256 256 257 259 260 262 266 267 268 268 269 269 271 273 275 279 282 286 289 290 292 293 294 296
265 262 260 259 258 257 257 257 257 257 256 255 254 254 255 256 254 253 252 252 252 253 255 259 263 265 264 264 264 265 266 268 271 275 279 283 286 288 289 290 291 292 295
268 265 263 260 259 257 256 255 254 253 252 250 250 250 251 252 251 251 250 251 251 251 255 258 260 260 261 262 262 264 266 269 272 277 281 283 285 285 286 287 289 291 293
270 268 266 263 260 257 255 253 252 251 250 249 248 248 248 248 249 249 249 250 250 251 253 256 257 258 259 261 263 266 269 273 276 279 280 282 283 283 284 285 288 290 293
272 270 268 265 261 258 255 253 251 251 250 250 249 250 250 249 249 249 250 251 251 251 251 253 255 258 260 263 267 270 273 275 276 277 279 280 281 281 283 285 287 290 294
273 270 267 264 261 259 257 254 252 251 251 251 252 252 252 252 252 252 253 254 254 255 255 257 259 262 265 268 270 272 274 274 275 276 277 278 279 281 283 285 288 291 295
273 268 264 262 261 261 259 255 251 248 247 247 249 250 251 252 253 255 256 258 259 260 261 262 263 265 266 268 270 270 272 272 273 274 275 277 279 281 283 285 289 293 296
273 265 261 261 262 262 259 253 248 244 243 242 243 244 246 248 251 253 255 256 258 260 261 262 262 262 263 265 267 268 269 269 271 273 275 277 279 281 283 286 290 294 298
272 262 257 258 260 259 255 251 247 242 239 236 237 239 241 243 244 245 247 249 251 252 253 254 256 258 260 262 263 264 266 268 270 272 275 278 280 282 285 288 292 296 299
273 261 256 254 255 256 253 250 245 241 238 237 238 240 242 241 240 240 241 242 244 247 249 251 254 255 257 259 260 261 263 266 270 274 278 280 283 285 288 291 294 297 300
289 271 263 260 259 256 252 249 245 242 240 240 242 243 242 241 240 240 240 242 245 247 249 251 253 254 256 257 258 261 266 271 275 279 282 283 286 288 291 294 296 299 301
326 298 282 272 265 261 256 252 249 246 244 243 243 243 243 243 244 244 245 246 247 249 251 253 253 253 253 255 261 267 272 276 279 282 284 286 289 291 294 296 298 300 302
Height
5633 5634 5636 5636 5636 5636 5637 5637 5637 5637 5638 5638 5639 5639 5640 5641 5642 5642 5642 5640 5640 5639 5639 5639 5639 5639 5639 5638 5638 5637 5637 5636 5635 5632 5629 5625 5622 5621 5620 5619 5617 5616 5613
5616 5618 5619 5620 5620 5620 5620 5620 5620 5620 5620 5621 5621 5622 5624 5624 5625 5625 5625 5624 5623 5623 5622 5623 5623 5622 5622 5621 5621 5620 5620 5619 5617 5616 5613 5609 5606 5604 5603 5602 5600 5598 5595
5598 5600 5602 5602 5602 5603 5603 5602 5602 5603 5603 5603 5604 5605 5606 5607 5607 5608 5608 5607 5607 5607 5606 5606 5606 5605 5605 5604 5603 5603 5602 5601 5600 5598 5596 5593 5590 5588 5587 5586 5584 5581 5577
5578 5580 5582 5583 5584 5584 5583 5584 5585 5585 5586 5586 5587 5588 5588 5588 5589 5589 5589 5589 5589 5589 5589 5589 5588 5588 5587 5587 5586 5585 5584 5583 5582 5581 5579 5577 5574 5572 5571 5570 5568 5564 5560
5555 5558 5560 5562 5562 5563 5564 5564 5564 5566 5567 5568 5568 5569 5569 5569 5570 5570 5570 5570 5570 5570 5571 5571 5570 5570 5569 5569 5568 5567 5566 5565 5564 5563 5562 5559 5557 5555 5554 5552 5550 5547 5544
5531 5533 5536 5538 5539 5540 5541 5542 5543 5545 5546 5546 5547 5548 5549 5550 5550 5550 5549 5550 5551 5551 5552 5552 5551 5551 5551 5551 5550 5549 5548 5547 5547 5546 5544 5542 5539 5537 5536 5533 5531 5528 5526
5505 5508 5510 5513 5515 5516 5517 5519 5521 5522 5523 5524 5526 5527 5529 5530 5529 5528 5528 5529 5530 5531 5532 5532 5532 5532 5532 5532 5531 5530 5530 5529 5529 5528 5526 5523 5521 5518 5517 5514 5509 5505 5501
5480 5483 5485 5487 5489 5491 5493 5495 5497 5498 5499 5501 5503 5505 5507 5508 5507 5507 5507 5509 5510 5511 5512 5513 5513 5513 5513 5513 5513 5512 5512 5511 5510 5510 5508 5504 5501 5498 5495 5492 5488 5485 5480
5454 5457 5459 5461 5463 5465 5468 5470 5472 5473 5475 5477 5479 5481 5484 5486 5485 5485 5486 5489 5490 5491 5492 5493 5493 5493 5493 5494 5494 5494 5493 5492 5491 5490 5488 5485 5481 5477 5473 5470 5465 5461 5459
5426 5429 5431 5433 5435 5438 5441 5443 5445 5447 5449 5451 5453 5456 5459 5463 5463 5462 5464 5469 5470 5470 5471 5473 5473 5473 5473 5474 5475 5474 5473 5472 5471 5469 5467 5465 5461 5456 5450 5446 5441 5436 5431
5397 5400 5402 5404 5406 5409 5413 5416 5419 5421 5423 5426 5429 5432 5436 5439 5439 5438 5442 5448 5449 5449 5451 5453 5453 5453 5453 5455 5456 5455 5454 5453 5451 5449 5446 5443 5439 5434 5428 5421 5416 5411 5405
5366 5369 5372 5375 5377 5380 5384 5389 5392 5396 5399 5402 5405 5409 5413 5416 5416 5416 5420 5427 5428 5429 5432 5433 5433 5433 5434 5435 5436 5436 5434 5434 5432 5429 5426 5422 5418 5413 5407 5400 5393 5388 5382
5334 5339 5342 5346 5349 5352 5357 5362 5367 5371 5375 5378 5382 5386 5390 5393 5394 5395 5399 5405 5408 5410 5412 5413 5413 5413 5414 5415 5417 5416 5415 5414 5412 5409 5405 5401 5396 5392 5386 5380 5373 5368 5362
5302 5307 5311 5316 5321 5325 5330 5336 5341 5347 5351 5355 5359 5363 5368 5371 5373 5375 5378 5382 5388 5390 5391 5393 5393 5393 5395 5396 5396 5395 5394 5392 5390 5387 5383 5379 5375 5370 5364 5359 5354 5348 5344
5267 5272 5278 5283 5288 5295 5302 5309 5316 5323 5327 5331 5336 5340 5345 5350 5353 5354 5357 5361 5367 5371 5371 5371 5372 5374 5376 5376 5375 5374 5372 5370 5368 5365 5362 5358 5354 5349 5343 5337 5331 5326 5321
5232 5238 5243 5249 5256 5263 5271 5280 5288 5296 5302 5307 5312 5318 5324 5329 5332 5334 5336 5338 5343 5348 5349 5351 5353 5355 5356 5355 5354 5353 5352 5349 5347 5344 5340 5337 5333 5328 5322 5315 5310 5304 5300
5200 5205 5210 5216 5222 5229 5237 5247 5258 5266 5274 5282 5289 5295 5301 5307 5311 5313 5314 5315 5319 5325 5329 5332 5334 5334 5334 5333 5332 5331 5330 5328 5326 5323 5319 5315 5311 5306 5301 5296 5290 5285 5280
5173 5176 5180 5185 5190 5196 5204 5214 5224 5235 5244 5254 5264 5270 5277 5284 5289 5291 5292 5292 5297 5305 5310 5311 5312 5311 5311 5310 5310 5309 5308 5307 5304 5301 5297 5293 5290 5286 5281 5277 5271 5266 5261
5150 5152 5155 5159 5163 5169 5176 5185 5195 5205 5215 5225 5236 5244 5252 5259 5265 5268 5270 5273 5279 5285 5289 5288 5288 5288 5288 5288 5287 5287 5285 5284 5282 5279 5276 5272 5269 5266 5263 5258 5254 5248 5242
5130 5132 5134 5139 5143 5148 5154 5161 5170 5179 5188 5198 5209 5218 5226 5234 5241 5245 5249 5254 5259 5263 5265 5264 5264 5265 5266 5266 5265 5264 5263 5262 5260 5259 5256 5253 5251 5248 5245 5241 5236 5231 5225
5114 5117 5120 5125 5129 5134 5139 5144 5150 5157 5166 5175 5185 5193 5201 5209 5216 5222 5227 5232 5235 5238 5239 5241 5242 5243 5244 5245 5245 5244 5243 5243 5242 5241 5239 5236 5234 5232 5228 5224 5220 5214 5207
5105 5109 5113 5117 5121 5125 5128 5132 5137 5142 5150 5158 5165 5172 5178 5186 5193 5200 5204 5207 5210 5213 5217 5219 5222 5224 5225 5226 5226 5226 5226 5225 5225 5224 5223 5221 5218 5215 5212 5208 5203 5197 5189
5102 5106 5110 5113 5116 5119 5122 5125 5129 5134 5140 5146 5152 5157 5163 5169 5173 5178 5182 5186 5189 5193 5197 5201 5204 5206 5208 5209 5210 5210 5210 5210 5209 5209 5208 5206 5203 5200 5197 5192 5186 5179 5172
5102 5104 5107 5110 5113 5116 5118 5121 5125 5129 5134 5139 5144 5148 5152 5156 5159 5163 5167 5170 5174 5178 5182 5185 5188 5191 5193 5194 5195 5195 5195 5195 5195 5194 5194 5192 5189 5185 5181 5176 5169 5162 5154
5102 5104 5106 5108 5110 5112 5114 5117 5120 5123 5128 5131 5135 5139 5142 5145 5148 5152 5155 5159 5162 5166 5169 5172 5175 5177 5179 5181 5182 5182 5182 5182 5181 5180 5179 5177 5174 5170 5165 5159 5152 5144 5136
5104 5104 5105 5106 5107 5108 5110 5112 5114 5117 5120 5123 5127 5130 5133 5136 5139 5142 5145 5148 5152 5155 5158 5161 5163 5165 5167 5168 5169 5170 5170 5169 5168 5167 5165 5162 5158 5153 5147 5141 5134 5125 5117